Hourly Weather Chalupki

Today, 19 June, Saturday

Time Temperature Precipitation Wind Pressure Humidity
00:00 +21°C° 0 mm 1 mps 742 mmHg 74%
01:00 +21°C° 0 mm 1 mps 742 mmHg 74%
02:00 +20°C° 0 mm 1 mps 742 mmHg 74%
03:00 +20°C° 0 mm 1 mps 742 mmHg 74%
04:00 +20°C° 0 mm 1 mps 742 mmHg 74%
05:00 +22°C° 0 mm 1 mps 742 mmHg 69%
06:00 +24°C° 0 mm 1 mps 742 mmHg 65%
07:00 +24°C° 0 mm 0 mps 742 mmHg 61%
08:00 +27°C° 0 mm 1 mps 742 mmHg 56%
09:00 +29°C° 0 mm 1 mps 742 mmHg 52%
10:00 +30°C° 0 mm 1 mps 742 mmHg 48%
11:00 +31°C° 0 mm 1 mps 742 mmHg 46%
12:00 +31°C° 0 mm 1 mps 741 mmHg 45%
13:00 +32°C° 0 mm 2 mps 741 mmHg 43%
14:00 +32°C° 0.1 mm 1 mps 741 mmHg 46%
15:00 +31°C° 0.1 mm 1 mps 741 mmHg 48%
16:00 +31°C° 0.1 mm 1 mps 740 mmHg 50%
17:00 +30°C° 0 mm 1 mps 740 mmHg 57%
18:00 +29°C° 0 mm 1 mps 740 mmHg 63%
19:00 +27°C° 0 mm 1 mps 740 mmHg 70%
20:00 +26°C° 0 mm 1 mps 740 mmHg 72%
21:00 +25°C° 0 mm 1 mps 740 mmHg 73%
22:00 +24°C° 0 mm 1 mps 740 mmHg 75%
23:00 +23°C° 0 mm 1 mps 740 mmHg 80%

Tomorrow, 20 June, Sunday

Time Temperature Precipitation Wind Pressure Humidity
00:00 +22°C° 0 mm 1 mps 740 mmHg 84%
01:00 +21°C° 0 mm 1 mps 740 mmHg 88%
02:00 +21°C° 0 mm 1 mps 740 mmHg 90%
03:00 +20°C° 0 mm 1 mps 740 mmHg 91%
04:00 +18°C° 0 mm 0 mps 739 mmHg 93%
05:00 +20°C° 0 mm 0 mps 739 mmHg 87%
06:00 +23°C° 0 mm 1 mps 740 mmHg 81%
07:00 +25°C° 0 mm 1 mps 740 mmHg 75%
08:00 +26°C° 0 mm 1 mps 740 mmHg 69%
09:00 +28°C° 0 mm 2 mps 739 mmHg 63%
10:00 +29°C° 0 mm 2 mps 739 mmHg 57%
11:00 +30°C° 0 mm 2 mps 739 mmHg 56%
12:00 +30°C° 0 mm 3 mps 739 mmHg 54%
13:00 +31°C° 0 mm 3 mps 738 mmHg 52%
14:00 +31°C° 0.1 mm 3 mps 738 mmHg 52%
15:00 +31°C° 0.1 mm 2 mps 738 mmHg 52%
16:00 +31°C° 0.1 mm 2 mps 737 mmHg 52%
17:00 +30°C° 0 mm 2 mps 737 mmHg 59%
18:00 +28°C° 0 mm 2 mps 737 mmHg 65%
19:00 +27°C° 0 mm 2 mps 736 mmHg 72%
20:00 +26°C° 0 mm 2 mps 737 mmHg 75%
21:00 +24°C° 0 mm 1 mps 737 mmHg 77%
22:00 +23°C° 0 mm 1 mps 737 mmHg 80%
23:00 +22°C° 0 mm 1 mps 736 mmHg 81%

Day after tomorrow, 21 June, Monday

Time Temperature Precipitation Wind Pressure Humidity
00:00 +22°C° 0 mm 1 mps 736 mmHg 81%
01:00 +22°C° 0 mm 1 mps 736 mmHg 81%
02:00 +21°C° 0 mm 1 mps 736 mmHg 84%
03:00 +21°C° 0 mm 1 mps 736 mmHg 88%
04:00 +20°C° 0 mm 1 mps 736 mmHg 91%
05:00 +22°C° 0 mm 1 mps 736 mmHg 87%
06:00 +23°C° 0 mm 1 mps 736 mmHg 83%
07:00 +24°C° 0 mm 1 mps 736 mmHg 80%
08:00 +25°C° 0.5 mm 1 mps 736 mmHg 77%
09:00 +26°C° 0.5 mm 1 mps 736 mmHg 74%
10:00 +28°C° 0.5 mm 1 mps 736 mmHg 71%
11:00 +28°C° 0.8 mm 1 mps 736 mmHg 69%
12:00 +29°C° 0.8 mm 1 mps 735 mmHg 67%
13:00 +29°C° 0.8 mm 1 mps 735 mmHg 64%
14:00 +29°C° 0.5 mm 1 mps 735 mmHg 67%
15:00 +28°C° 0.5 mm 1 mps 735 mmHg 70%
16:00 +27°C° 0.5 mm 2 mps 735 mmHg 73%
17:00 +26°C° 0.4 mm 2 mps 735 mmHg 78%
18:00 +25°C° 0.4 mm 2 mps 735 mmHg 83%
19:00 +24°C° 0.4 mm 2 mps 735 mmHg 88%
20:00 +23°C° 1.2 mm 2 mps 736 mmHg 91%
21:00 +21°C° 1.2 mm 2 mps 736 mmHg 94%
22:00 +20°C° 1.2 mm 2 mps 737 mmHg 98%
23:00 +20°C° 0 mm 2 mps 737 mmHg 97%

22 June, Tuesday

Time Temperature Precipitation Wind Pressure Humidity
00:00 +20°C° 0 mm 2 mps 737 mmHg 97%
01:00 +21°C° 0 mm 1 mps 737 mmHg 97%
02:00 +21°C° 0 mm 1 mps 737 mmHg 97%
03:00 +19°C° 0 mm 2 mps 737 mmHg 97%
04:00 +19°C° 0 mm 2 mps 737 mmHg 97%
05:00 +19°C° 0 mm 2 mps 738 mmHg 96%
06:00 +20°C° 0 mm 2 mps 738 mmHg 94%
07:00 +20°C° 0 mm 2 mps 739 mmHg 92%
08:00 +21°C° 0 mm 2 mps 739 mmHg 87%
09:00 +23°C° 0 mm 2 mps 739 mmHg 83%
10:00 +24°C° 0 mm 2 mps 740 mmHg 79%
11:00 +25°C° 0 mm 2 mps 740 mmHg 75%
12:00 +25°C° 0 mm 2 mps 740 mmHg 72%
13:00 +26°C° 0 mm 2 mps 740 mmHg 68%
14:00 +27°C° 0 mm 2 mps 740 mmHg 66%
15:00 +27°C° 0 mm 2 mps 740 mmHg 65%
16:00 +28°C° 0 mm 2 mps 740 mmHg 63%
17:00 +27°C° 0 mm 2 mps 740 mmHg 69%
18:00 +26°C° 0 mm 2 mps 740 mmHg 74%
19:00 +25°C° 0 mm 1 mps 740 mmHg 80%
20:00 +24°C° 0 mm 1 mps 740 mmHg 83%
21:00 +22°C° 0 mm 1 mps 740 mmHg 86%
22:00 +19°C° 0 mm 0 mps 740 mmHg 89%
23:00 +21°C° 0 mm 1 mps 740 mmHg 90%

23 June, Wednesday

Time Temperature Precipitation Wind Pressure Humidity
00:00 +21°C° 0 mm 1 mps 740 mmHg 91%
01:00 +20°C° 0 mm 1 mps 740 mmHg 91%
02:00 +20°C° 0 mm 1 mps 740 mmHg 92%
03:00 +20°C° 0 mm 1 mps 740 mmHg 92%
04:00 +20°C° 0 mm 1 mps 740 mmHg 93%
05:00 +21°C° 0 mm 1 mps 740 mmHg 88%
06:00 +23°C° 0 mm 1 mps 740 mmHg 83%
07:00 +25°C° 0 mm 1 mps 740 mmHg 78%
08:00 +26°C° 0 mm 1 mps 740 mmHg 73%
09:00 +27°C° 0 mm 2 mps 740 mmHg 68%
10:00 +29°C° 0 mm 2 mps 740 mmHg 63%
11:00 +30°C° 0 mm 2 mps 740 mmHg 60%
12:00 +31°C° 0 mm 2 mps 740 mmHg 57%
13:00 +32°C° 0 mm 1 mps 740 mmHg 54%
14:00 +32°C° 0.5 mm 1 mps 740 mmHg 55%
15:00 +32°C° 0.5 mm 1 mps 740 mmHg 56%
16:00 +32°C° 0.5 mm 1 mps 740 mmHg 57%
17:00 +30°C° 0.3 mm 1 mps 740 mmHg 63%
18:00 +29°C° 0.3 mm 1 mps 740 mmHg 69%
19:00 +28°C° 0.3 mm 1 mps 739 mmHg 75%
20:00 +26°C° 1.1 mm 2 mps 740 mmHg 81%
21:00 +24°C° 1.1 mm 2 mps 740 mmHg 87%
22:00 +22°C° 1.1 mm 3 mps 741 mmHg 93%
23:00 +21°C° 3.4 mm 3 mps 741 mmHg 93%

24 June, Thursday

Time Temperature Precipitation Wind Pressure Humidity
00:00 +20°C° 3.4 mm 2 mps 741 mmHg 94%
01:00 +21°C° 3.4 mm 1 mps 741 mmHg 95%
02:00 +19°C° 0 mm 2 mps 741 mmHg 95%
03:00 +19°C° 0 mm 2 mps 741 mmHg 96%
04:00 +19°C° 0 mm 3 mps 741 mmHg 97%
05:00 +19°C° 0 mm 3 mps 741 mmHg 96%
06:00 +19°C° 0 mm 3 mps 742 mmHg 94%
07:00 +19°C° 0 mm 3 mps 742 mmHg 93%
08:00 +20°C° 0 mm 3 mps 742 mmHg 88%
09:00 +21°C° 0 mm 3 mps 743 mmHg 84%
10:00 +22°C° 0 mm 3 mps 743 mmHg 79%
11:00 +24°C° 0 mm 3 mps 743 mmHg 74%
12:00 +25°C° 0 mm 3 mps 742 mmHg 69%
13:00 +27°C° 0 mm 3 mps 742 mmHg 64%
14:00 +27°C° 0 mm 3 mps 742 mmHg 63%
15:00 +27°C° 0 mm 3 mps 742 mmHg 63%
16:00 +27°C° 0 mm 3 mps 742 mmHg 63%
17:00 +26°C° 0 mm 2 mps 742 mmHg 68%
18:00 +25°C° 0 mm 2 mps 742 mmHg 73%
19:00 +24°C° 0 mm 1 mps 741 mmHg 79%
20:00 +23°C° 0 mm 1 mps 741 mmHg 81%
21:00 +22°C° 0 mm 1 mps 742 mmHg 84%
22:00 +19°C° 0 mm 0 mps 742 mmHg 87%
23:00 +20°C° 0 mm 1 mps 741 mmHg 89%
Show more

We Need Your Consent

Meteoprog and our Service Providers may store and access personal data such as cookies, device identifiers or other similar technologies on your device and process such data to personalise content and ads, as well as provide social media features and to analyse the traffic.

  • Store and/or access information on your device

    Cookies, device identifiers or other information can be stored or accessed on your device for the purposes indicated above.

  • Personalised ads and content, ad and content measurement, audience insights, and products development

    Ads and content can be personalised based on a profile. More data can be added to better personalise ads and content. Ad and content performance can be measured. Insights about the audience who saw the ads and content can be derived. Such data can be used to develop or improve user’s experience, systems and software.

By clicking ‘I Agree’ you will allow the use of indicated cookies, device identifiers, web beacons or other similar technologies. Your settings can be changed in the browser on your device.

For certain purposes, legitimate interests may be relied on, rather than consent. You can read more about this in our Privacy and Cookie Policy.